TJS-17

Last updated on Thu Oct 30 2025 00:02:52 GMT+0000 (Coordinated Universal Time)

1 63524U 25073A 25302.73075248 -.00000059 00000+0 00000+0 0 9998 2 63524 0.4635 83.4940 0002698 180.7238 201.7224 1.00270980 1985
UTC large
Height (km)
Speed (km/s)
/
Latitude / Longitude
Inclination (degrees)
Orbital Period (minutes)
Azimuth
Elevation
Range (km)
Doppler Factor

Next 0 passes for location: London (51.5072 / 0.1276)

Sorry there are no passes over London.